Location: Montr�al
(45.5000°N, 73.5830°W)
Time: 11:59:14
(UTC-05:00)

ISS - All Passes

Search period start: 16 December 2017 00:00
Search period end: 26 December 2017 00:00
Orbit: 402 x 406 km, 51.6° (Epoch: 16 December)

Date Brightness Start Highest point End Pass type
(mag) Time Alt. Az. Time Alt. Az. Time Alt. Az.
16 Dec - 10:49:14 10° SSW 10:52:17 37° SE 10:55:21 10° ENE daylight
16 Dec - 12:25:34 10° W 12:28:45 44° NNW 12:31:56 10° NE daylight
16 Dec - 14:02:52 10° WNW 14:05:45 27° N 14:08:37 10° ENE daylight
16 Dec - 15:39:33 10° NW 15:42:44 46° NNE 15:45:56 10° E daylight
16 Dec - 17:16:08 10° WNW 17:19:10 34° SW 17:22:10 10° SSE visible
17 Dec - 09:57:37 10° S 10:00:11 21° SE 10:02:46 10° E daylight
17 Dec - 11:33:08 10° WSW 11:36:25 65° NNW 11:39:42 10° ENE daylight
17 Dec - 13:10:24 10° WNW 13:13:19 28° N 13:16:13 10° NE daylight
17 Dec - 14:47:18 10° NW 14:50:22 35° NNE 14:53:25 10° E daylight
17 Dec - 16:23:45 10° WNW 16:27:00 60° SSW 16:30:14 10° SE daylight
18 Dec - 09:06:47 10° SSE 09:08:09 12° SE 09:09:32 10° ESE daylight
18 Dec - 10:40:52 10° SW 10:44:08 79° SSE 10:47:27 10° ENE daylight
18 Dec - 12:17:52 10° WNW 12:20:52 31° NNW 12:23:53 10° NE daylight
18 Dec - 13:55:00 10° NW 13:57:57 29° N 14:00:53 10° ENE daylight
18 Dec - 15:31:27 10° WNW 15:34:46 81° NNE 15:38:03 10° ESE daylight
18 Dec - 17:08:43 10° W 17:10:52 16° SW 17:13:00 10° S visible
19 Dec - 09:48:47 10° SW 09:51:56 45° SE 09:55:06 10° ENE daylight
19 Dec - 11:25:20 10° W 11:28:27 39° NNW 11:31:36 10° NE daylight
19 Dec - 13:02:36 10° WNW 13:05:29 27° N 13:08:22 10° ENE daylight
19 Dec - 14:39:12 10° NW 14:42:26 52° NNE 14:45:40 10° E daylight
19 Dec - 16:15:54 10° WNW 16:18:47 28° SW 16:21:38 10° SSE daylight
20 Dec - 08:56:59 10° SSW 08:59:46 26° SE 09:02:34 10° E daylight
20 Dec - 10:32:50 10° WSW 10:36:05 56° NNW 10:39:20 10° ENE daylight
20 Dec - 12:10:08 10° WNW 12:13:00 27° N 12:15:53 10° ENE daylight
20 Dec - 13:46:56 10° NW 13:50:03 38° NNE 13:53:09 10° E daylight
20 Dec - 15:23:24 10° WNW 15:26:36 49° SW 15:29:47 10° SE daylight
21 Dec - 08:05:44 10° S 08:07:40 15° SE 08:09:37 10° E daylight
21 Dec - 09:40:27 10° WSW 09:43:44 87° NNW 09:47:02 10° ENE daylight
21 Dec - 11:17:34 10° WNW 11:20:32 30° N 11:23:29 10° NE daylight
21 Dec - 12:54:36 10° NW 12:57:36 30° N 13:00:35 10° ENE daylight
21 Dec - 14:31:03 10° WNW 14:34:21 85° SSW 14:37:38 10° ESE daylight
21 Dec - 16:08:42 10° WSW 16:10:22 13° SW 16:12:03 10° SSW daylight
22 Dec - 08:48:14 10° SW 08:51:28 55° SE 08:54:42 10° ENE daylight
22 Dec - 10:24:58 10° W 10:28:03 36° NNW 10:31:09 10° NE daylight
22 Dec - 12:02:13 10° WNW 12:05:07 27° N 12:08:00 10° ENE daylight
22 Dec - 13:38:44 10° WNW 13:42:01 60° NNE 13:45:16 10° ESE daylight
22 Dec - 15:15:36 10° W 15:18:17 23° SW 15:20:56 10° SSE daylight
23 Dec - 07:56:17 10° SSW 07:59:14 31° SE 08:02:12 10° ENE daylight
23 Dec - 09:32:25 10° W 09:35:37 49° NNW 09:38:50 10° NE daylight
23 Dec - 11:09:43 10° WNW 11:12:36 27° N 11:15:28 10° ENE daylight
23 Dec - 12:46:27 10° NW 12:49:36 42° NNE 12:52:45 10° E daylight
23 Dec - 14:22:58 10° WNW 14:26:06 40° SW 14:29:11 10° SE daylight
24 Dec - 07:04:46 10° S 07:07:05 18° SE 07:09:24 10° E daylight
24 Dec - 08:39:57 10° WSW 08:43:14 74° NNW 08:46:32 10° ENE daylight
24 Dec - 10:17:08 10° WNW 10:20:04 28° N 10:23:00 10° NE daylight
24 Dec - 11:54:06 10° NW 11:57:08 32° NNE 12:00:09 10° E daylight
24 Dec - 13:30:32 10° WNW 13:33:49 71° SSW 13:37:05 10° SE daylight
24 Dec - 15:08:52 10° WSW 15:09:45 11° SW 15:10:38 10° SSW daylight
25 Dec - 06:14:53 10° SE 06:15:00 10° SE 06:15:06 10° SE visible
25 Dec - 07:47:38 10° SW 07:50:53 67° SSE 07:54:10 10° ENE daylight
25 Dec - 09:24:32 10° W 09:27:33 33° NNW 09:30:36 10° NE daylight
25 Dec - 11:01:42 10° NW 11:04:37 28° N 11:07:31 10° ENE daylight
25 Dec - 12:38:10 10° WNW 12:41:28 70° NNE 12:44:45 10° ESE daylight
25 Dec - 14:15:13 10° W 14:17:39 19° SW 14:20:04 10° S daylight
